Lexington Weather

Lexington, Massachusetts, USA

34°F
4/16/2021 10:19am 
  • Lexington Conditions: Snow, Fog, Overcast
  • Temperature: 34.0°F / 1.1°CColder 0.3°F than last hour.
  • Dew Point: 32.7°FDecreased 0.4°Fsince last hour.
  • Relative Humidity: 95
  • Wind: Calm, 10-min avg: Calm, gust: None
  • Barometer: 29.49 in Steady
  • Visibility: ½ mile
  • Snow Today: 1.3 in
  •   

Regional Weather Roundup
for Boston / Norton, MA

        
000
ASUS41 KBOX 161104
RWRBOX

REGIONAL WEATHER ROUNDUP
NATIONAL WEATHER SERVICE BOSTON/NORTON MA
700 AM EDT FRI APR 16 2021

NOTE:  "FAIR" INDICATES FEW OR NO CLOUDS BELOW 12,000 FEET WITH NO 
SIGNIFICANT WEATHER AND/OR OBSTRUCTIONS TO VISIBILITY.

MAZALL-161200-
EASTERN MASSACHUSETTS
  
CITY           SKY/WX    TMP DP  RH WIND       PRES   REMARKS
BOSTON         LGT RAIN  43  41  93 NE24G31   29.58F                  
BEVERLY        NOT AVBL                                               
LAWRENCE       RAIN      40  37  89 NE16G24   29.62F FOG     WCI  31  
BEDFORD        RAIN      41  39  93 NE10      29.58F FOG              
BLUE HILL        N/A     39  38  96 NE14G30   29.53F WCI  31          
NORWOOD        LGT RAIN  43  38  82 NE10G18   29.56F                  
MARSHFIELD     HVY RAIN  43  43 100 NE12G31   29.52F                  
PLYMOUTH       RAIN      43  41  93 NE15G30   29.49F                  
TAUNTON        RAIN      43  40  89 N9G20     29.51F FOG              
NEW BEDFORD    LGT RAIN  44  42  93 N8        29.48F FOG              
$$

MAZALL-161200-
CAPE COD AND THE ISLANDS
  
CITY           SKY/WX    TMP DP  RH WIND       PRES   REMARKS
FALMOUTH       LGT RAIN  43  43 100 NE21G28   29.45F                  
HYANNIS        HVY RAIN  46  43  89 N20G29    29.41F FOG              
CHATHAM        LGT RAIN  45  42  89 NE17G30   29.41F FOG              
PROVINCETOWN   LGT RAIN  43  42  97 NE23G29   29.49F FOG              
NANTUCKET      LGT RAIN  47  46  97 E20G31    29.35F FOG              
MARTHAS VNYRD  RAIN      45  44  97 NE16G24   29.43F FOG              
$$
 
MAZALL-161200-
CENTRAL AND WESTERN MASSACHUSETTS
  
CITY           SKY/WX    TMP DP  RH WIND       PRES   REMARKS
WORCESTER      SNOW      34  32  92 N10       29.57S VSB 1/2 WCI  26  
FITCHBURG      LGT RAIN  35  34  96 N8        29.61F FOG     WCI  29  
ORANGE         LGT SNOW  33  33 100 NW6       29.63S FOG     WCI  28  
SPRINGFIELD    LGT SNOW  33  33  99 N6        29.63S FOG     WCI  27  
WESTFIELD      LGT RAIN  34  33  96 N5        29.64S WCI  30          
NORTH ADAMS    LGT SNOW  33  33 100 W3        29.65S FOG              
PITTSFIELD     LGT SNOW  33  32  96 W3        29.61S VSB 1            
$$
 
RIZALL-161200-
RHODE ISLAND
  
CITY           SKY/WX    TMP DP  RH WIND       PRES   REMARKS
PROVIDENCE     RAIN      38  36  92 NW12      29.54F FOG     WCI  30  
NEWPORT        LGT RAIN  41  40  96 N10       29.51S FOG              
BLOCK ISLAND   LGT RAIN  36  35  96 NW15G21   29.55S WCI  27          
SMITHFIELD     MIX PCPN  35  35 100 NW9       29.55F WCI  28          
WESTERLY       LGT RAIN  34  33  96 VRB7G20   29.57S WCI  28          
$$
 
CTZALL-161200-
CONNECTICUT
  
CITY           SKY/WX    TMP DP  RH WIND       PRES   REMARKS
BRADLEY INTL   LGT SNOW  36  33  89 NW7       29.64S FOG     WCI  30  
HARTFORD       LGT RAIN  37  33  85 N9        29.65S WCI  30          
BRIDGEPORT     CLOUDY    40  36  86 NW6       29.65R                  
DANBURY        CLOUDY    40  34  79 NW7       29.66R                  
GROTON         LGT RAIN  36  34  92 NW15      29.59S WCI  27          
NEW HAVEN      CLOUDY    40  37  89 N6        29.63S                  
CHESTER        LGT SNOW  34  34 100 NW10G17   29.61S WCI  26          
MERIDEN        CLOUDY    37  34  89 N5        29.64S                  
WILLIMANTIC    LGT SNOW  33  31  92 NW3       29.61S VSB 1            
OXFORD         CLOUDY    36  36 100 N10       29.63S WCI  28          
$$

MEZ002-015-021-024-NHZ003-005-008-011-012-014-VTZ005-008-161200-
NORTHERN NEW ENGLAND
  
CITY           SKY/WX    TMP DP  RH WIND       PRES   REMARKS
PORTLAND ME    LGT RAIN  40  37  89 E21G30    29.72S FOG     WCI  30  
BANGOR ME      CLOUDY    39  33  79 E10G21    29.81S                  
CONCORD NH     LGT RAIN  36  33  89 N9        29.66F FOG     WCI  29  
MANCHESTER NH  RAIN      38  34  85 N10       29.62F FOG     WCI  31  
NASHUA NH      LGT RAIN  37  37 100 N6        29.63F                  
PORTSMOUTH NH  LGT RAIN  40  37  90 NE14      29.67F FOG     WCI  32  
JAFFREY NH     LGT SNOW  34  32  92 VRB5      29.60F VSB 1   WCI  30  
KEENE NH       MIX PCPN  33  33 100 N3        29.64F                  
BURLINGTON VT  LGT RAIN  39  35  86 N5        29.72S                  
MT. WASHINGTON SNOW      16  16 100 E53G61      N/A  VSB 1/16WCI  -9  
$$

NYZ052-076-161200-
EASTERN NEW YORK
  
CITY           SKY/WX    TMP DP  RH WIND       PRES   REMARKS
ALBANY         LGT SNOW  30  30 100 CALM      29.68S VSB 1            
NEW YORK CITY  PTCLDY    43  36  76 NW5       29.66F                  
$$
 
ANZALL-161200-
MARINE OBSERVATIONS
  
STATION/POSITION TIME  TEMP    WIND        PRES    VSBY  WAVE
                       AIR SEA DIR/SP/G                  HT/PER
                 (UTC) (F)     (DEG/KT/KT) (MB)    (MI)  (FT/S)
BOSTON BUOY      1040   42 44   50/ 23/ 29 1001.6F
BUZZARDS BAY     1000          350/ 16/ 17  999.7F
NANTUCKET SOUND  1050      47                N/A           4/ 4
MASS BAY-STELLWA 1004   43      60/ 23/ 27 1001.0F  1 3/8  7/ 6
ISLE OF SHOALS   1000   40      70/ 27/ 29 1002.9F
S OF BLOCK IS    1026      44                N/A           8/ 8
$$

......................KEY.........................
  SKY/WX - SKY CONDITION/PRESENT WEATHER
  TMP    - TEMPERATURE IN FAHRENHEIT
  DWPT   - DEWPOINT IN FAHRENHEIT
  RH     - RELATIVE HUMIDITY IN PERCENT
  WIND   - DIRECTION AND SPEED IN MPH
  PRES   - MEAN SEA LEVEL PRESSURE IN INCHES OF HG
  WCI    - WIND CHILL INDEX
  VSB    - VISIBILITY IN MILES
  HX     - HEAT INDEX
  TC     - TEMPERATURE IN CELSIUS
  VRB    - VARIABLE WIND DIRECTION
  N/A    - NOT AVAILABLE
  
      

Other recent Regional Weather Roundups

Fri Apr 16, 10:05am

Fri Apr 16, 9:04am

Fri Apr 16, 8:04am

Fri Apr 16, 6:04am

Fri Apr 16, 5:04am

Fri Apr 16, 4:04am

Fri Apr 16, 3:04am

Fri Apr 16, 2:04am

Fri Apr 16, 1:04am

Fri Apr 16, 12:04am

Thu Apr 15, 11:05pm

Thu Apr 15, 10:04pm

Thu Apr 15, 9:04pm

Thu Apr 15, 8:04pm

Thu Apr 15, 7:05pm

Thu Apr 15, 6:04pm

Thu Apr 15, 5:05pm

Thu Apr 15, 4:04pm

Thu Apr 15, 3:05pm

Thu Apr 15, 2:04pm

Thu Apr 15, 1:05pm

Thu Apr 15, 12:04pm

Thu Apr 15, 11:04am

Thu Apr 15, 10:05am

Thu Apr 15, 9:04am

Thu Apr 15, 8:04am

Thu Apr 15, 7:04am

Thu Apr 15, 6:04am

Thu Apr 15, 5:04am

Thu Apr 15, 4:04am

Thu Apr 15, 3:04am

Thu Apr 15, 2:04am

Thu Apr 15, 1:04am

Thu Apr 15, 12:04am

Wed Apr 14, 11:04pm

Wed Apr 14, 10:04pm

Wed Apr 14, 9:04pm

Wed Apr 14, 8:04pm

Wed Apr 14, 7:04pm

Wed Apr 14, 6:04pm

Wed Apr 14, 5:05pm

Wed Apr 14, 4:04pm

Wed Apr 14, 3:05pm

Wed Apr 14, 2:04pm

Wed Apr 14, 1:05pm

Wed Apr 14, 12:04pm

Wed Apr 14, 11:04am

Wed Apr 14, 10:04am

Wed Apr 14, 9:04am

Wed Apr 14, 8:04am

Wed Apr 14, 7:04am

Wed Apr 14, 6:04am

Wed Apr 14, 5:04am

Wed Apr 14, 4:04am

Wed Apr 14, 3:04am

Wed Apr 14, 2:04am

Wed Apr 14, 1:04am

Wed Apr 14, 12:04am

Tue Apr 13, 11:04pm

Tue Apr 13, 10:05pm

Tue Apr 13, 9:05pm

Tue Apr 13, 8:05pm

Tue Apr 13, 7:04pm

Tue Apr 13, 6:04pm

Tue Apr 13, 5:05pm

Tue Apr 13, 4:04pm

Tue Apr 13, 3:04pm

Tue Apr 13, 2:05pm

Tue Apr 13, 1:04pm

Tue Apr 13, 12:05pm

Tue Apr 13, 11:05am

Tue Apr 13, 10:04am

Tue Apr 13, 9:04am

Tue Apr 13, 8:04am

Tue Apr 13, 7:04am

Tue Apr 13, 6:04am

Tue Apr 13, 5:04am

Tue Apr 13, 4:04am

Tue Apr 13, 3:04am

Tue Apr 13, 2:04am

Tue Apr 13, 1:04am

Tue Apr 13, 12:05am

Mon Apr 12, 11:04pm

Mon Apr 12, 10:04pm

Mon Apr 12, 9:04pm

Mon Apr 12, 8:04pm

Mon Apr 12, 7:05pm

Mon Apr 12, 6:04pm

Mon Apr 12, 5:04pm

Mon Apr 12, 4:04pm

Mon Apr 12, 3:05pm

Mon Apr 12, 2:04pm

Mon Apr 12, 1:05pm

Mon Apr 12, 12:04pm

Mon Apr 12, 11:04am

Mon Apr 12, 10:04am

Mon Apr 12, 9:04am

Mon Apr 12, 8:04am

Mon Apr 12, 7:04am

Mon Apr 12, 6:04am

Mon Apr 12, 5:04am

Mon Apr 12, 4:04am

Mon Apr 12, 3:04am

Mon Apr 12, 2:04am

Mon Apr 12, 1:05am

Mon Apr 12, 12:04am

Sun Apr 11, 11:04pm

Sun Apr 11, 10:04pm

Sun Apr 11, 9:04pm

Sun Apr 11, 8:04pm

Sun Apr 11, 7:04pm

Sun Apr 11, 6:05pm

Sun Apr 11, 5:05pm

Sun Apr 11, 4:04pm

Sun Apr 11, 3:05pm

Sun Apr 11, 2:05pm

Sun Apr 11, 1:05pm

Sun Apr 11, 12:04pm

Sun Apr 11, 11:05am

Sun Apr 11, 10:05am

Sun Apr 11, 9:04am

Sun Apr 11, 8:04am

Sun Apr 11, 7:04am

Sun Apr 11, 6:04am

Sun Apr 11, 5:04am

Sun Apr 11, 4:04am

Sun Apr 11, 3:04am

Sun Apr 11, 2:04am

Sun Apr 11, 1:05am

Sun Apr 11, 12:04am

Sat Apr 10, 11:05pm

Sat Apr 10, 10:04pm

Sat Apr 10, 9:04pm

Sat Apr 10, 8:04pm

Sat Apr 10, 7:05pm

Sat Apr 10, 6:04pm

Sat Apr 10, 5:04pm

Sat Apr 10, 4:04pm

Sat Apr 10, 3:04pm

Sat Apr 10, 2:05pm

Sat Apr 10, 1:04pm

Sat Apr 10, 12:04pm

Sat Apr 10, 11:04am

Sat Apr 10, 10:04am

Sat Apr 10, 9:04am

Sat Apr 10, 8:04am

Sat Apr 10, 7:04am

Sat Apr 10, 6:04am

Sat Apr 10, 5:04am

Sat Apr 10, 4:04am

Sat Apr 10, 3:04am

Sat Apr 10, 2:04am

Sat Apr 10, 1:05am

Sat Apr 10, 12:04am

Fri Apr 9, 11:04pm

Fri Apr 9, 10:05pm

Fri Apr 9, 9:04pm

Fri Apr 9, 8:05pm

Fri Apr 9, 7:05pm

Fri Apr 9, 6:04pm

Fri Apr 9, 5:04pm

Fri Apr 9, 4:05pm

Fri Apr 9, 3:05pm

Fri Apr 9, 2:04pm

Fri Apr 9, 1:04pm

Fri Apr 9, 12:04pm

Fri Apr 9, 11:05am

Meta data:

ID: 23bdc989-c4b9-4408-9128-2d658289f329
Link: https://api.weather.gov/products/23bdc989-c4b9-4408-9128-2d658289f329